Location: Charlo
(47.4385°N, 114.1723°W)
Time: 22:21:13
(UTC+00:00)

N. Korean satellite - Visible Passes

Search period start: 08 August 2022 00:00
Search period end: 18 August 2022 00:00
Orbit: 433 x 471 km, 97.3° (Epoch: 07 August)

Date Brightness Start Highest point End Pass type
(mag) Time Alt. Az. Time Alt. Az. Time Alt. Az.
08 Aug 9.9 11:44:08 10° ENE 11:45:01 11° E 11:45:54 10° ESE visible
13 Aug 9.6 11:56:34 10° NE 11:58:43 15° E 12:00:52 10° SE visible
16 Aug 9.8 11:46:36 10° ENE 11:47:52 12° E 11:49:08 10° ESE visible
